TimeHST,TemperatureF,Dew PointF,Humidity,Sea Level PressureIn,VisibilityMPH,Wind Direction,Wind SpeedMPH,Gust SpeedMPH,PrecipitationIn,Events,Conditions,WindDirDegrees,DateUTC
12:53 AM,75.9,63.0,64,30.06,10.0,ENE,8.1,-,N/A,,Scattered Clouds,60,2013-06-05 10:53:00
1:53 AM,73.9,62.1,66,30.04,10.0,NE,13.8,-,N/A,,Partly Cloudy,50,2013-06-05 11:53:00
2:53 AM,73.9,63.0,68,30.04,10.0,ENE,9.2,-,N/A,,Scattered Clouds,60,2013-06-05 12:53:00
3:53 AM,73.9,64.0,71,30.02,10.0,ENE,13.8,-,N/A,,Partly Cloudy,60,2013-06-05 13:53:00
4:53 AM,73.9,62.1,66,30.03,10.0,ENE,12.7,-,N/A,,Partly Cloudy,70,2013-06-05 14:53:00
5:53 AM,73.0,63.0,71,30.03,10.0,NE,8.1,-,N/A,,Partly Cloudy,50,2013-06-05 15:53:00
6:53 AM,75.0,62.1,64,30.05,10.0,ENE,13.8,21.9,N/A,,Scattered Clouds,60,2013-06-05 16:53:00
7:53 AM,78.1,63.0,60,30.06,10.0,ENE,20.7,26.5,N/A,,Scattered Clouds,60,2013-06-05 17:53:00
8:53 AM,77.0,64.0,64,30.07,10.0,ENE,18.4,23.0,N/A,,Mostly Cloudy,60,2013-06-05 18:53:00
9:53 AM,81.0,63.0,54,30.07,10.0,ENE,12.7,24.2,N/A,,Scattered Clouds,60,2013-06-05 19:53:00
10:53 AM,82.0,64.0,54,30.06,10.0,ENE,18.4,25.3,N/A,,Scattered Clouds,70,2013-06-05 20:53:00
11:53 AM,82.9,61.0,47,30.05,10.0,ENE,15.0,25.3,N/A,,Scattered Clouds,60,2013-06-05 21:53:00
12:53 PM,84.0,62.1,47,30.04,10.0,ENE,18.4,25.3,N/A,,Scattered Clouds,70,2013-06-05 22:53:00
1:53 PM,84.0,64.9,53,30.03,10.0,ENE,13.8,25.3,N/A,,Scattered Clouds,60,2013-06-05 23:53:00
2:53 PM,82.9,64.9,54,30.01,10.0,NE,13.8,-,N/A,,Scattered Clouds,50,2013-06-06 00:53:00
3:53 PM,80.1,66.0,62,30.00,10.0,NE,8.1,18.4,N/A,,Mostly Cloudy,40,2013-06-06 01:53:00
4:53 PM,80.1,64.9,60,30.00,10.0,NE,12.7,21.9,0.00,Rain,Light Rain,40,2013-06-06 02:53:00
5:53 PM,77.0,64.9,66,30.01,10.0,NE,12.7,21.9,0.00,,Mostly Cloudy,50,2013-06-06 03:53:00
6:27 PM,77.0,66.2,69,30.01,10.0,ENE,11.5,18.4,N/A,,Overcast,70,2013-06-06 04:27:00
6:53 PM,77.0,64.0,64,30.02,10.0,ENE,17.3,24.2,N/A,,Mostly Cloudy,70,2013-06-06 04:53:00
7:53 PM,75.9,64.0,67,30.03,10.0,ENE,12.7,-,N/A,,Mostly Cloudy,60,2013-06-06 05:53:00
8:53 PM,75.9,61.0,60,30.05,10.0,ENE,12.7,26.5,N/A,,Mostly Cloudy,70,2013-06-06 06:53:00
9:53 PM,75.0,62.1,64,30.05,10.0,NE,11.5,-,N/A,,Mostly Cloudy,50,2013-06-06 07:53:00
10:53 PM,75.0,62.1,64,30.06,10.0,ENE,13.8,-,N/A,,Mostly Cloudy,60,2013-06-06 08:53:00
11:53 PM,75.0,62.1,64,30.05,10.0,East,11.5,-,N/A,,Mostly Cloudy,80,2013-06-06 09:53:00